Weather History for LGKZ - October, 2012

Change the Weather History Date:

Thursday, October 4, 2012

  Actual Average Record
Temperature  
Mean Temperature 68 °F -  
Max Temperature 78 °F - - ()
Min Temperature 59 °F - - ()
Cooling Degree Days 4    
Growing Degree Days 18 (Base 50)    
Moisture  
Dew Point 46 °F    
Average Humidity 51    
Maximum Humidity 68    
Minimum Humidity 28    
Precipitation  
Precipitation 0.00 in - - ()
Sea Level Pressure  
Sea Level Pressure 30.03 in    
Wind  
Wind Speed 5 mph ()    
Max Wind Speed 12 mph    
Max Gust Speed -    
Visibility 6.2 miles    
Events      
T = Trace of Precipitation, MM = Missing Value Source: Averaged Metar Reports

Daily Weather History Graph

Daily Weather History Graph

Search for Another Location

Airport or City:

Trip Planner

Search our weather history database for the weather conditions in past years. The results will help you decide how hot, cold, wet, or windy it might be!

Date:

Astronomy

Oct. 04, 2012 Rise Set
Actual Time 7:32 AM EEST 7:09 PM EEST
Civil Twilight 7:05 AM EEST 7:36 PM EEST
Nautical Twilight 6:33 AM EEST 8:08 PM EEST
Astronomical Twilight 6:01 AM EEST 8:39 PM EEST
Moon 9:30 PM EEST (10/4) 11:33 AM EEST (10/4)
Length of Visible Light 12h 31m
Length of Day
11h 37m
Waning Gibbous, 84% of the Moon is Illuminated
Oct 4
Waning Gibbous
Oct 8
Last Quarter
Oct 15
New
Oct 22
First Quarter
Oct 29
Full

Hourly Weather History & Observations

Time (EEST) Temp. Dew Point Humidity Pressure Visibility Wind Dir Wind Speed Gust Speed Precip Events Conditions
12:20 AM 64.4 °F 46.4 °F 52% 30.04 in - NNW 9.2 mph - N/A   Unknown
12:50 AM 64.4 °F 46.4 °F 52% 30.04 in - NNW 8.1 mph - N/A   Unknown
1:20 AM 62.6 °F 46.4 °F 55% 30.04 in - West 4.6 mph - N/A   Unknown
1:50 AM 62.6 °F 46.4 °F 55% 30.04 in - Variable 1.2 mph - N/A   Unknown
2:20 AM 62.6 °F 48.2 °F 59% 30.04 in - West 4.6 mph - N/A   Unknown
2:50 AM 60.8 °F 48.2 °F 63% 30.04 in - Variable 3.5 mph - N/A   Unknown
3:20 AM 59.0 °F 48.2 °F 67% 30.04 in - Variable 3.5 mph - N/A   Unknown
3:50 AM 60.8 °F 50.0 °F 68% 30.04 in - Variable 2.3 mph - N/A   Unknown
4:20 AM 60.8 °F 50.0 °F 68% 30.04 in - NW 4.6 mph - N/A   Unknown
4:50 AM 60.8 °F 50.0 °F 68% 30.04 in - WNW 8.1 mph - N/A   Unknown
5:20 AM 60.8 °F 50.0 °F 68% 30.04 in - NW 9.2 mph - N/A   Unknown
5:50 AM 60.8 °F 50.0 °F 68% 30.04 in - NNW 10.4 mph - N/A   Unknown
6:20 AM 60.8 °F 48.2 °F 63% 30.04 in - NNW 10.4 mph - N/A   Unknown
6:50 AM 60.8 °F 50.0 °F 68% 30.04 in - NNW 11.5 mph - N/A   Unknown
7:20 AM 60.8 °F 50.0 °F 68% 30.04 in - NNW 11.5 mph - N/A   Unknown
7:50 AM 60.8 °F 48.2 °F 63% 30.04 in - NNW 9.2 mph - N/A   Unknown
8:20 AM 60.8 °F 50.0 °F 68% 30.04 in - NW 9.2 mph - N/A   Unknown
8:50 AM 62.6 °F 50.0 °F 63% 30.06 in - NW 10.4 mph - N/A   Clear
9:50 AM 64.4 °F 50.0 °F 59% 30.06 in - NNW 11.5 mph - N/A   Clear
10:50 AM 68.0 °F 50.0 °F 52% 30.06 in - NNW 10.4 mph - N/A   Clear
11:50 AM 69.8 °F 48.2 °F 46% 30.06 in - North 6.9 mph - N/A   Clear
12:50 PM 73.4 °F 48.2 °F 41% 30.04 in 6.2 mi North 5.8 mph - N/A   Partly Cloudy
1:50 PM 71.6 °F 46.4 °F 41% 30.04 in 6.2 mi Calm Calm - N/A   Partly Cloudy
2:50 PM 75.2 °F 44.6 °F 34% 30.01 in 6.2 mi Calm Calm - N/A   Scattered Clouds
3:20 PM 77.0 °F 44.6 °F 32% 30.01 in - West 4.6 mph - N/A   Unknown
3:50 PM 78.8 °F 44.6 °F 30% 30.01 in - Variable 3.5 mph - N/A   Unknown
4:20 PM 78.8 °F 42.8 °F 28% 29.98 in - Variable 3.5 mph - N/A   Unknown
4:50 PM 77.0 °F 42.8 °F 29% 29.98 in - West 4.6 mph - N/A   Unknown
5:20 PM 77.0 °F 41.0 °F 28% 29.98 in - Variable 3.5 mph - N/A   Unknown
5:50 PM 75.2 °F 42.8 °F 31% 29.98 in - NW 4.6 mph - N/A   Unknown
6:20 PM 75.2 °F 42.8 °F 31% 29.98 in - NNW 4.6 mph - N/A   Unknown
6:50 PM 73.4 °F 42.8 °F 33% 29.98 in - North 4.6 mph - N/A   Unknown
7:20 PM 69.8 °F 42.8 °F 38% 29.98 in - Calm Calm - N/A   Unknown
7:50 PM 68.0 °F 42.8 °F 40% 30.01 in - Variable 1.2 mph - N/A   Unknown
8:20 PM 64.4 °F 44.6 °F 49% 30.01 in - Calm Calm - N/A   Unknown
8:50 PM 66.2 °F 44.6 °F 46% 30.01 in - Variable 2.3 mph - N/A   Unknown
9:20 PM 64.4 °F 44.6 °F 49% 30.01 in - Variable 3.5 mph - N/A   Unknown
9:50 PM 66.2 °F 44.6 °F 46% 30.01 in - NW 5.8 mph - N/A   Unknown
10:20 PM 62.6 °F 44.6 °F 52% 30.04 in - NNW 4.6 mph - N/A   Unknown
10:50 PM 60.8 °F 44.6 °F 55% 30.04 in - Variable 2.3 mph - N/A   Unknown
11:20 PM 59.0 °F 44.6 °F 59% 30.04 in - Variable 1.2 mph - N/A   Unknown
11:50 PM 59.0 °F 44.6 °F 59% 30.04 in - Variable 1.2 mph - N/A   Unknown